Simultaneous Nadir Overpasses (SNOs) Predictions

Prediction of SNOs between LANDSAT-8 and NOAA-19 Satellite Orbit:

Table of predicted SNOs for the next 14.0 days since TLE Epoch: 5/11/2024
Index Date (LANDSAT-8) Time (LANDSAT-8) Lat,Lon (LANDSAT-8) SZA (LANDSAT-8 ) Date (NOAA-19) Time (NOAA-19) Lat,Lon (NOAA-19) SZA (NOAA-19 ) Distance(km) Time Diff (sec)
1 05/13/2024 07:18:32 -80.70, -75.86 116.12 05/13/2024 07:17:25 -80.70, -75.74 116.14 2.24 67
2 05/13/2024 08:07:57 80.73, 92.15 63.93 05/13/2024 08:08:17 80.73, 92.29 63.96 2.45 20
3 05/15/2024 14:31:04 80.72, -3.79 63.37 05/15/2024 14:31:13 80.72, -3.69 63.39 1.68 9
4 05/17/2024 20:54:10 80.71, -99.71 62.84 05/17/2024 20:54:08 80.71, -99.74 62.83 0.60 2
5 05/20/2024 03:17:15 80.70, 164.39 62.34 05/20/2024 03:17:01 80.70, 164.51 62.35 2.25 14
6 05/22/2024 09:40:19 80.69, 68.51 61.86 05/22/2024 09:39:54 80.68, 68.35 61.83 3.03 25
7 05/22/2024 10:29:45 -80.72,-123.52 118.09 05/22/2024 10:30:56 -80.72,-123.48 118.06 0.91 71
8 05/24/2024 16:03:22 80.68, -27.36 61.42 05/24/2024 16:02:45 80.67, -27.53 61.38 3.23 37



Historial Predications of SNOs between LANDSAT-8 and NOAA-19
